Terug naar catalogus

ATLAS 5 CENTAUR DEB

LostHEO
NORAD 49364·DEBRIS·🇺🇸 United States

Gelanceerd Oct 17, 2018 vanaf Cape Canaveral Space Force Station

Loading…

Volgende Passages (komende 24 uur)

TLE

VerouderdSource: Space-Track

Epoch: Apr 28, 2024, 01:23 UTC

1 49364U 18079FR  24119.05765209 -.00000050  00000-0  00000-0 0  9998
2 49364  12.4092  78.7379 5017644 206.2469 115.9391  1.69993154 16545

Volg ATLAS 5 CENTAUR DEB in realtime met AllMySat

Download on the App Store